DELTA 1 DEB, 7195

Orbit data source: Space-Track

DELTA 1 DEB, 7195 is space debris in LEO originally from a launch on Tue, 06 Nov 1973 UTC launched from the Air Force Western Test Range (AFWTR). Debris objects in space refer to the collection of defunct objects orbiting the Earth. Examples of debris include non-operational satellites, rocket bodies, and fragments generated from explosions, collisions, or faulty payload assembly.

Loading next visibility...
Identifier
7195, 1973-086FD
Orbit
LEO
Country
Flag of USUS
Related business
Manufacturer
Unknown
Mission
Spacecraft
Bus & Motor
Unknown
Mass
Unknown
Launch date (UTC)
1973-11-06 (52 years ago)
Launch vehicle
Unknown
Launch site
Air Force Western Test Range (AFWTR)
Object type
Payload
Rocket body
Debris
Shape & HBR
Unknown shape, 0.1 m
Radar Cross Section
Small (<0.1 m²)

Expand to show TLE details & history
Last TLE update: 8 hours ago

TLE from 8 hours ago
0 DELTA 1 DEB
1 07195U 73086FD  25292.24430771  .00001830  00000-0  21404-2 0  9999
2 07195 103.1703 173.6779 0297941 151.4245 210.3575 13.53243387521968
Epoch: 2025-10-19T05:51Z
TLE epoch observation values (Epoch: 2025-10-19T05:51:48.186Z)
Latitude
0.00006°
Longitude
57.76336°
Altitude
1,255.897 km
Speed
7.133 km/s
True Right ascension
11h 34m 42s
True Declination
0° 00' 00"
Sunlit
Object was in daylight at epoch
Visualization orbit readout
Latitude
Unknown
Longitude
Unknown
Altitude
Unknown
Speed
Unknown
Apparent Right ascension
Unknown
Apparent Declination
Unknown
Sunlit
N/A
Visualization observer readout
Local Sidereal Time
08:24:11
Azimuth
Unknown
Elevation
Unknown
Doppler factor
Unknown
Orbital elements
Apogee altitude
1,279.4 km
Perigee altitude
836.303 km
Semi-major axis
7,435.989 km
Eccentricity
0.02979
Inclination
103.1703°
RAAN
173.6779°
Arg. of periapsis
151.4245°
True anomaly
208.68603°
Mean anomaly
210.3575°
Eccentric anomaly
209.51647°
Mean motion
3.38482 °/min
Orbital period
106.36 mins
BSTAR
0.0021404
Loading maneuver chart data...
Computing Atmospheric mass density...
Loading historical data...
Loading historical data...
Loading historical data...
Loading historical data...
Loading historical data...
Loading historical data...
Loading historical data...

Documentation

Showing up to 5 results
|